User: anonymous   Login
Location: Newark
(36.2667°N, 50.0000°E)
Time: 22:08:05
(UTC+00:00)
Language:

Hubble Space Telescope - Orbit

View from above orbital plane
View from above orbital plane
View from above satellite
View from above satellite

Ground track
Ground track

The orbit data is extracted from the following two-line orbital elements,

1 20580U 90037B   20300.35644674 +.00000632 +00000-0 +27435-4 0  9994
2 20580 028.4687 173.8224 0002809 063.6944 099.4585 15.09457954475757
Epoch (UTC): 26 October 2020 08:33:16
Eccentricity: 0.0002809
inclination: 28.4687°
perigee height: 536 km
apogee height: 540 km
right ascension of ascending node: 173.8224°
argument of perigee: 63.6944°
revolutions per day: 15.09457954
mean anomaly at epoch: 99.4585°
orbit number at epoch: 47575

The dashed part of the orbit path shows where the satellite is in the earth's shadow,  

DLR